CZ-6A DEB, 56245

Orbit data source: Space-Track

CZ-6A DEB, 56245 is space debris in SSO originally from a launch on Fri, 11 Nov 2022 UTC launched from the Taiyaun Space Center, China (TSC). Debris objects in space refer to the collection of defunct objects orbiting the Earth. Examples of debris include non-operational satellites, rocket bodies, and fragments generated from explosions, collisions, or faulty payload assembly.

Loading next visibility...
Identifier
56245, 2022-151ABM
Orbit
SSO
Country
Flag of CNCN / PRC
Related business
Manufacturer
SAST
Mission
Spacecraft
Bus & Motor
Unknown
Mass
Unknown
Launch date (UTC)
2022-11-11 (4 years ago)
Launch vehicle
Unknown
Launch site
Taiyaun Space Center, China (TSC)
Object type
Payload
Rocket body
Debris
Shape & HBR
Unknown shape, 1.1 m
Radar Cross Section
Medium (>0.1 m² and <1 m²)

Expand to show TLE details & history
Last TLE update: 4 days ago

TLE from 4 days ago
0 CZ-6A DEB
1 56245U 22151ABM 26169.47964420  .00003024  00000-0  13150-2 0  9994
2 56245  98.8105 177.4738 0044011 295.9790  63.6858 14.24319400172063
Epoch: 2026-06-18T11:30Z
TLE epoch observation values (Epoch: 2026-06-18T11:30:41.258Z)
Latitude
-0.00007°
Longitude
98.07953°
Altitude
799.783 km
Speed
7.461 km/s
True Right ascension
11h 49m 53s
True Declination
0° 00' 00"
Sunlit
Object was in daylight at epoch
Visualization orbit readout
Latitude
Unknown
Longitude
Unknown
Altitude
Unknown
Speed
Unknown
Apparent Right ascension
Unknown
Apparent Declination
Unknown
Sunlit
N/A
Visualization observer readout
Local Sidereal Time
23:27:15
Azimuth
Unknown
Elevation
Unknown
Doppler factor
Unknown
Orbital elements
Apogee altitude
839.566 km
Perigee altitude
776.313 km
Semi-major axis
7,186.076 km
Eccentricity
0.0044
Inclination
98.8105°
RAAN
177.4738°
Arg. of periapsis
295.979°
True anomaly
64.13897°
Mean anomaly
63.6858°
Eccentric anomaly
63.91227°
Mean motion
3.56291 °/min
Orbital period
101.04 mins
BSTAR
0.001315
Loading maneuver chart data...
Computing Atmospheric mass density...

Documentation

Showing up to 5 results
|